EXS7LX EGNM-LCLK

Flight info

Callsign EXS7LX
Flight time N/A
Altitude 35000
Route LAMIX L603 DOLAS DCT NAVPI DCT GISEB DCT DIXAT DCT TIVUN DCT ESAMA DCT OSBIT DCT BARSU DCT MOOCE DCT RUDNO DCT DEXIT DCT BARUG DCT STEIN DCT OLATI DCT BABIT DCT KOTUS DCT OBAGI DCT NISVA DCT VIT DCT USALI DCT OTKOK DCT RODIP UN131 PIBOM DCT BELGI UN131 KULAR UT39 TOMBI DCT DASNI M601 BONEK
Aircraft B738/M-SDE2E3FGHIRWXY/LB1

Departure

Time 2026-05-04 14:24
Airport Leeds Bradford Airport (EGNM)

Arrival

Time N/A
Airport Larnaca International Airport (LCLK)
Time Latitude Longitude Altitude Speed Heading
2026-05-04 13:54 53.86878 -1.65690 664 ft 0 kts
2026-05-04 13:55 53.86877 -1.65619 664 ft 0 kts
2026-05-04 14:14 53.86869 -1.65619 664 ft 4 kts
2026-05-04 14:15 53.86824 -1.65630 661 ft 4 kts 51°
2026-05-04 14:15 53.86816 -1.65712 664 ft 4 kts 85°
2026-05-04 14:16 53.86811 -1.65794 661 ft 3 kts 91°
2026-05-04 14:16 53.86812 -1.65838 661 ft 4 kts 91°
2026-05-04 14:17 53.86813 -1.65856 663 ft 1 kts 91°
2026-05-04 14:19 53.86812 -1.65848 662 ft 2 kts 91°
2026-05-04 14:19 53.86812 -1.65805 661 ft 5 kts 98°
2026-05-04 14:19 53.86778 -1.65758 665 ft 7 kts 152°
2026-05-04 14:19 53.86744 -1.65680 664 ft 11 kts 99°
2026-05-04 14:20 53.86745 -1.65543 663 ft 12 kts 102°
2026-05-04 14:20 53.86709 -1.65431 660 ft 12 kts 157°
2026-05-04 14:20 53.86625 -1.65427 662 ft 12 kts 182°
2026-05-04 14:21 53.86462 -1.65442 669 ft 11 kts 184°
2026-05-04 14:21 53.86384 -1.65451 676 ft 11 kts 184°
2026-05-04 14:21 53.86308 -1.65460 678 ft 11 kts 184°
2026-05-04 14:21 53.86230 -1.65464 679 ft 13 kts 172°
2026-05-04 14:22 53.86139 -1.65360 680 ft 18 kts 138°
2026-05-04 14:22 53.86035 -1.65201 674 ft 21 kts 137°
2026-05-04 14:22 53.85945 -1.65060 668 ft 14 kts 132°
2026-05-04 14:22 53.85904 -1.64932 663 ft 10 kts 125°
2026-05-04 14:23 53.85914 -1.65016 663 ft 6 kts 317°
2026-05-04 14:23 53.86016 -1.65173 673 ft 50 kts 317°
2026-05-04 14:23 53.86457 -1.65850 668 ft 121 kts 318°
2026-05-04 14:24 53.87219 -1.67027 817 ft 164 kts 318°
2026-05-04 14:24 53.88080 -1.68372 1497 ft 174 kts 314°
2026-05-04 14:24 53.88894 -1.69948 2247 ft 182 kts 310°
2026-05-04 14:24 53.89735 -1.71598 2862 ft 190 kts 308°
2026-05-04 14:25 53.90344 -1.73697 3199 ft 209 kts 282°
2026-05-04 14:25 53.89421 -1.78412 3843 ft 240 kts 230°
2026-05-04 14:25 53.88113 -1.80355 4178 ft 260 kts 206°
2026-05-04 14:26 53.86331 -1.80947 4825 ft 267 kts 175°
2026-05-04 14:26 53.84499 -1.80430 5584 ft 270 kts 165°
2026-05-04 14:26 53.82875 -1.78865 6278 ft 274 kts 135°
2026-05-04 14:26 53.81541 -1.76542 7049 ft 276 kts 136°
2026-05-04 14:27 53.80149 -1.74275 7748 ft 281 kts 137°
2026-05-04 14:27 53.78708 -1.71997 8450 ft 285 kts 137°
2026-05-04 14:27 53.77249 -1.69715 9172 ft 288 kts 138°
2026-05-04 14:27 53.75767 -1.67411 9863 ft 292 kts 138°
2026-05-04 14:28 53.74254 -1.65065 10412 ft 301 kts 138°
2026-05-04 14:28 53.72654 -1.62588 10567 ft 323 kts 138°
2026-05-04 14:28 53.70946 -1.59945 10747 ft 343 kts 138°
2026-05-04 14:28 53.69155 -1.57177 11193 ft 353 kts 138°
2026-05-04 14:29 53.65501 -1.51541 12553 ft 359 kts 139°
2026-05-04 14:29 53.61787 -1.45832 13872 ft 365 kts 139°
2026-05-04 14:30 53.59902 -1.42941 14454 ft 368 kts 139°
2026-05-04 14:30 53.58004 -1.40030 15064 ft 370 kts 139°
2026-05-04 14:30 53.54174 -1.34162 16250 ft 375 kts 139°
2026-05-04 14:31 53.52233 -1.31197 16836 ft 378 kts 139°
2026-05-04 14:31 53.48452 -1.24951 18001 ft 385 kts 129°
2026-05-04 14:32 53.45695 -1.17187 19050 ft 390 kts 116°
2026-05-04 14:32 53.44507 -1.13086 19581 ft 392 kts 116°
2026-05-04 14:32 53.43325 -1.09016 20074 ft 394 kts 116°
2026-05-04 14:32 53.42115 -1.04892 20592 ft 395 kts 116°
2026-05-04 14:33 53.40876 -1.00704 21097 ft 397 kts 116°
2026-05-04 14:33 53.39653 -0.96598 21534 ft 400 kts 116°
2026-05-04 14:33 53.38401 -0.92408 22009 ft 403 kts 116°
2026-05-04 14:33 53.37120 -0.88237 22481 ft 404 kts 117°
2026-05-04 14:34 53.35802 -0.84056 22956 ft 406 kts 117°
2026-05-04 14:34 53.34478 -0.79872 23413 ft 408 kts 117°
2026-05-04 14:34 53.33149 -0.75660 23817 ft 410 kts 117°
2026-05-04 14:34 53.31815 -0.71428 24191 ft 412 kts 117°
2026-05-04 14:35 53.30512 -0.67139 24561 ft 413 kts 112°
2026-05-04 14:35 53.29544 -0.62615 24919 ft 414 kts 105°
2026-05-04 14:35 53.28753 -0.57990 25295 ft 415 kts 104°
2026-05-04 14:35 53.27965 -0.53337 25641 ft 417 kts 105°
2026-05-04 14:36 53.27122 -0.48687 25980 ft 419 kts 106°
2026-05-04 14:36 53.26242 -0.44033 26327 ft 421 kts 106°
2026-05-04 14:36 53.25350 -0.39359 26663 ft 422 kts 106°
2026-05-04 14:36 53.24464 -0.34693 26963 ft 425 kts 107°
2026-05-04 14:37 53.23566 -0.29957 27212 ft 429 kts 107°
2026-05-04 14:37 53.22657 -0.25201 27535 ft 430 kts 107°
2026-05-04 14:37 53.21740 -0.20442 27887 ft 431 kts 107°
2026-05-04 14:37 53.20820 -0.15686 28199 ft 432 kts 107°
2026-05-04 14:38 53.19895 -0.10905 28490 ft 434 kts 107°
2026-05-04 14:38 53.18965 -0.06108 28788 ft 436 kts 107°
2026-05-04 14:38 53.18029 -0.01293 29091 ft 437 kts 107°
2026-05-04 14:38 53.17087 0.03557 29251 ft 442 kts 108°
2026-05-04 14:39 53.16135 0.08458 29386 ft 447 kts 108°
2026-05-04 14:39 53.15176 0.13386 29705 ft 447 kts 108°
2026-05-04 14:39 53.14216 0.18303 30118 ft 445 kts 108°
2026-05-04 14:40 53.12305 0.28063 30823 ft 441 kts 108°
2026-05-04 14:40 53.11349 0.32928 31096 ft 441 kts 108°
2026-05-04 14:40 53.10405 0.37718 31368 ft 441 kts 108°
2026-05-04 14:40 53.09434 0.42630 31667 ft 440 kts 108°
2026-05-04 14:41 53.08477 0.47465 31970 ft 439 kts 108°
2026-05-04 14:41 53.07532 0.52222 32226 ft 439 kts 108°
2026-05-04 14:41 53.05593 0.61954 32456 ft 445 kts 109°
2026-05-04 14:42 53.03647 0.71671 33149 ft 440 kts 109°
2026-05-04 14:42 53.02680 0.76480 33412 ft 440 kts 109°
2026-05-04 14:42 53.01709 0.81298 33672 ft 439 kts 109°
2026-05-04 14:43 53.00738 0.86107 33912 ft 439 kts 109°
2026-05-04 14:43 52.99765 0.90918 34036 ft 441 kts 110°
2026-05-04 14:43 52.97788 1.00645 34264 ft 445 kts 110°
2026-05-04 14:44 52.96755 1.05460 34442 ft 445 kts 112°
2026-05-04 14:44 52.95667 1.10290 34488 ft 448 kts 112°
2026-05-04 14:44 52.94555 1.15124 34641 ft 448 kts 112°
2026-05-04 14:44 52.93445 1.19930 34873 ft 447 kts 112°
2026-05-04 14:45 52.92338 1.24738 35054 ft 446 kts 112°
2026-05-04 14:45 52.91228 1.29566 35028 ft 450 kts 112°
2026-05-04 14:45 52.89012 1.39236 35036 ft 448 kts 112°
2026-05-04 14:46 52.86810 1.48834 35037 ft 444 kts 112°
2026-05-04 14:46 52.84616 1.58360 35029 ft 442 kts 113°
2026-05-04 14:47 52.82410 1.67882 35051 ft 446 kts 113°
2026-05-04 14:47 52.80164 1.77532 35047 ft 452 kts 113°
2026-05-04 14:48 52.77907 1.87188 35045 ft 455 kts 113°
2026-05-04 14:48 52.75620 1.96933 35034 ft 456 kts 113°
2026-05-04 14:49 52.73320 2.06695 35013 ft 454 kts 114°
2026-05-04 14:49 52.71040 2.16326 35019 ft 449 kts 114°
2026-05-04 14:50 52.68762 2.25899 35019 ft 447 kts 115°
2026-05-04 14:50 52.66488 2.35411 35030 ft 446 kts 115°
2026-05-04 14:51 52.64191 2.44983 35020 ft 446 kts 115°
2026-05-04 14:51 52.61916 2.54418 35007 ft 447 kts 115°
2026-05-04 14:52 52.59614 2.63926 35019 ft 449 kts 115°
2026-05-04 14:52 52.57291 2.73486 35022 ft 451 kts 115°
2026-05-04 14:53 52.54944 2.83099 35015 ft 454 kts 115°
2026-05-04 14:53 52.52351 2.92641 35015 ft 455 kts 119°
2026-05-04 14:54 52.49608 3.01953 34995 ft 457 kts 120°
2026-05-04 14:54 52.46818 3.11410 35006 ft 458 kts 120°
2026-05-04 14:55 52.44531 3.19224 35008 ft 458 kts 120°
2026-05-04 14:55 52.41335 3.30161 35006 ft 457 kts 120°
2026-05-04 14:56 52.38595 3.39509 35000 ft 455 kts 120°
2026-05-04 14:56 52.36296 3.47322 34985 ft 453 kts 120°
2026-05-04 14:57 52.33578 3.56524 34995 ft 451 kts 121°
2026-05-04 14:57 52.30825 3.65806 34991 ft 450 kts 121°
2026-05-04 14:58 52.28110 3.74921 34992 ft 449 kts 121°
2026-05-04 14:58 52.25358 3.84130 34990 ft 448 kts 121°
2026-05-04 14:59 52.22615 3.93270 34991 ft 448 kts 121°
2026-05-04 15:00 52.18501 4.06916 34974 ft 448 kts 121°
2026-05-04 15:00 52.15760 4.15964 34987 ft 448 kts 122°
2026-05-04 15:01 52.11604 4.29622 34983 ft 449 kts 122°
2026-05-04 15:01 52.08825 4.38714 34981 ft 449 kts 122°
2026-05-04 15:02 52.06040 4.47787 34984 ft 449 kts 122°
2026-05-04 15:02 52.03248 4.56851 34981 ft 449 kts 122°
2026-05-04 15:03 52.00450 4.65903 34967 ft 449 kts 122°
2026-05-04 15:03 51.97643 4.74948 34972 ft 448 kts 122°
2026-05-04 15:04 51.94834 4.83969 34978 ft 448 kts 122°
2026-05-04 15:04 51.92021 4.92973 34971 ft 448 kts 122°
2026-05-04 15:05 51.89214 5.01997 34968 ft 449 kts 121°
2026-05-04 15:05 51.86616 5.11175 34973 ft 449 kts 119°
2026-05-04 15:06 51.84070 5.20401 34971 ft 449 kts 120°
2026-05-04 15:07 51.80206 5.34164 34966 ft 447 kts 120°
2026-05-04 15:07 51.77608 5.43297 34960 ft 447 kts 120°
2026-05-04 15:08 51.75017 5.52356 34962 ft 447 kts 120°
2026-05-04 15:08 51.72383 5.61533 34962 ft 448 kts 120°
2026-05-04 15:09 51.69775 5.70587 34968 ft 449 kts 120°
2026-05-04 15:09 51.67136 5.79718 34968 ft 450 kts 120°
2026-05-04 15:10 51.63159 5.93409 34954 ft 450 kts 121°
2026-05-04 15:11 51.59167 6.07076 34969 ft 450 kts 121°
2026-05-04 15:11 51.56494 6.16181 34966 ft 450 kts 121°
2026-05-04 15:12 51.53821 6.25254 34966 ft 449 kts 121°
2026-05-04 15:12 51.51146 6.34298 34962 ft 448 kts 121°
2026-05-04 15:13 51.48463 6.43335 34970 ft 448 kts 121°
2026-05-04 15:13 51.45768 6.52375 34972 ft 449 kts 121°
2026-05-04 15:14 51.43070 6.61394 34976 ft 449 kts 121°
2026-05-04 15:14 51.40357 6.70432 34988 ft 451 kts 121°
2026-05-04 15:15 51.37622 6.79505 34969 ft 453 kts 121°
2026-05-04 15:15 51.34873 6.88592 34978 ft 454 kts 121°
2026-05-04 15:16 51.30758 7.02139 34987 ft 452 kts 121°
2026-05-04 15:17 51.26591 7.15698 34988 ft 455 kts 124°
2026-05-04 15:17 51.21498 7.28369 34957 ft 451 kts 129°
2026-05-04 15:18 51.18020 7.36654 34969 ft 448 kts 129°
2026-05-04 15:19 51.12898 7.49052 34969 ft 445 kts 128°
2026-05-04 15:19 51.07818 7.61367 34950 ft 442 kts 128°
2026-05-04 15:20 51.04441 7.69518 34973 ft 442 kts 128°
2026-05-04 15:20 51.01053 7.77667 34983 ft 442 kts 128°
2026-05-04 15:21 50.97653 7.85821 34987 ft 444 kts 128°
2026-05-04 15:22 50.92459 7.98032 34998 ft 444 kts 134°
2026-05-04 15:22 50.85935 8.08241 35013 ft 440 kts 142°
2026-05-04 15:23 50.81500 8.14880 35019 ft 443 kts 141°
2026-05-04 15:23 50.77014 8.21663 35018 ft 445 kts 141°
2026-05-04 15:24 50.68077 8.35202 35014 ft 446 kts 141°
2026-05-04 15:25 50.63601 8.41957 34982 ft 445 kts 141°
2026-05-04 15:26 50.56897 8.52036 34974 ft 443 kts 141°
2026-05-04 15:26 50.50209 8.62047 34969 ft 441 kts 141°
2026-05-04 15:27 50.43574 8.71940 34968 ft 440 kts 141°
2026-05-04 15:28 50.36918 8.81826 34966 ft 438 kts 142°
2026-05-04 15:28 50.33078 8.89316 34969 ft 448 kts 123°
2026-05-04 15:29 50.31716 8.93727 34981 ft 451 kts 119°
2026-05-04 15:30 50.22745 9.25094 34952 ft 452 kts 119°
2026-05-04 15:31 50.18808 9.38493 34978 ft 453 kts 119°
2026-05-04 15:32 50.12177 9.60920 34982 ft 458 kts 119°
2026-05-04 15:34 50.05612 9.83604 34978 ft 463 kts 115°
2026-05-04 15:34 50.02262 9.97729 34967 ft 464 kts 114°
2026-05-04 15:35 49.98876 10.11772 34957 ft 464 kts 114°
2026-05-04 15:36 49.95434 10.25790 34971 ft 462 kts 114°
2026-05-04 15:36 49.93125 10.35159 34970 ft 462 kts 115°
2026-05-04 15:37 49.90699 10.44283 34979 ft 459 kts 118°
2026-05-04 15:37 49.87975 10.53227 34965 ft 458 kts 119°
2026-05-04 15:38 49.85228 10.62126 34974 ft 457 kts 119°
2026-05-04 15:38 49.82513 10.71019 34979 ft 457 kts 118°
2026-05-04 15:39 49.80246 10.78475 34975 ft 457 kts 118°
2026-05-04 15:40 49.76184 10.91799 34950 ft 456 kts 118°
2026-05-04 15:40 49.73484 11.00613 34967 ft 456 kts 118°
2026-05-04 15:41 49.70757 11.09477 34970 ft 457 kts 118°
2026-05-04 15:41 49.68018 11.18352 34967 ft 458 kts 118°
2026-05-04 15:42 49.65271 11.27220 34966 ft 458 kts 118°
2026-05-04 15:42 49.62515 11.36089 34957 ft 458 kts 118°
2026-05-04 15:43 49.59755 11.44939 34959 ft 458 kts 118°
2026-05-04 15:43 49.56988 11.53786 34977 ft 458 kts 118°
2026-05-04 15:44 49.54663 11.62961 34983 ft 460 kts 111°
2026-05-04 15:44 49.52615 11.72294 34973 ft 460 kts 111°
2026-05-04 15:45 49.50536 11.81617 34977 ft 460 kts 111°
2026-05-04 15:45 49.48416 11.90878 34986 ft 459 kts 112°
2026-05-04 15:46 49.46272 12.00134 34973 ft 459 kts 112°
2026-05-04 15:46 49.44123 12.09370 34961 ft 459 kts 112°
2026-05-04 15:47 49.41971 12.18589 34959 ft 458 kts 112°
2026-05-04 15:47 49.39811 12.27803 34944 ft 458 kts 112°
2026-05-04 15:48 49.37660 12.36945 34949 ft 458 kts 112°
2026-05-04 15:48 49.34394 12.50742 34943 ft 458 kts 114°
2026-05-04 15:49 49.31320 12.59171 34958 ft 451 kts 129°
2026-05-04 15:49 49.27545 12.66852 34948 ft 451 kts 130°
2026-05-04 15:50 49.23761 12.74539 34939 ft 452 kts 129°
2026-05-04 15:50 49.19998 12.82261 34944 ft 452 kts 129°
2026-05-04 15:51 49.16249 12.89978 34940 ft 452 kts 129°
2026-05-04 15:51 49.12492 12.97697 34935 ft 453 kts 129°
2026-05-04 15:52 49.08746 13.05367 34944 ft 453 kts 129°
2026-05-04 15:52 49.04973 13.13071 34941 ft 454 kts 129°
2026-05-04 15:53 49.01190 13.20771 34925 ft 454 kts 129°
2026-05-04 15:53 48.97405 13.28452 34922 ft 453 kts 129°
2026-05-04 15:54 48.93624 13.36105 34931 ft 452 kts 129°
2026-05-04 15:54 48.89842 13.43737 34928 ft 451 kts 129°
2026-05-04 15:55 48.86059 13.51351 34934 ft 451 kts 129°
2026-05-04 15:55 48.82282 13.58931 34933 ft 450 kts 129°
2026-05-04 15:56 48.78503 13.66498 34916 ft 450 kts 129°
2026-05-04 15:56 48.74708 13.74049 34925 ft 450 kts 130°
2026-05-04 15:57 48.70872 13.81545 34933 ft 450 kts 130°
2026-05-04 15:57 48.67026 13.89021 34927 ft 451 kts 130°
2026-05-04 15:58 48.63172 13.96506 34916 ft 451 kts 130°
2026-05-04 15:58 48.59315 14.03988 34913 ft 452 kts 130°
2026-05-04 15:59 48.55442 14.11481 34925 ft 452 kts 130°
2026-05-04 15:59 48.51588 14.18917 34913 ft 453 kts 130°
2026-05-04 16:00 48.47699 14.26399 34922 ft 453 kts 130°
2026-05-04 16:00 48.43805 14.33869 34894 ft 454 kts 131°
2026-05-04 16:01 48.39899 14.41342 34888 ft 453 kts 130°
2026-05-04 16:01 48.36000 14.48782 34897 ft 453 kts 130°
2026-05-04 16:02 48.32092 14.56217 34896 ft 453 kts 130°
2026-05-04 16:03 48.26219 14.67353 34910 ft 453 kts 131°
2026-05-04 16:03 48.22296 14.74766 34908 ft 454 kts 130°
2026-05-04 16:04 48.18366 14.82173 34911 ft 454 kts 130°
2026-05-04 16:04 48.12463 14.93258 34918 ft 454 kts 130°
2026-05-04 16:05 48.08519 15.00642 34929 ft 454 kts 130°
2026-05-04 16:06 48.02595 15.11692 34924 ft 454 kts 130°
2026-05-04 16:07 47.94703 15.26348 34942 ft 455 kts 130°
2026-05-04 16:08 47.87315 15.41594 34967 ft 455 kts 119°
2026-05-04 16:09 47.79775 15.62389 34969 ft 457 kts 119°
2026-05-04 16:10 47.73598 15.78952 34975 ft 458 kts 119°
2026-05-04 16:11 47.67373 15.95526 34980 ft 460 kts 120°
2026-05-04 16:12 47.57953 16.20420 34980 ft 462 kts 119°
2026-05-04 16:13 47.51657 16.36932 34975 ft 462 kts 119°
2026-05-04 16:14 47.45335 16.53418 34977 ft 460 kts 120°
2026-05-04 16:16 47.36485 16.72965 34978 ft 458 kts 127°
2026-05-04 16:17 47.27011 16.91765 34990 ft 456 kts 126°
2026-05-04 16:18 47.19485 17.06805 34995 ft 456 kts 126°
2026-05-04 16:19 47.10054 17.25523 35003 ft 455 kts 126°
2026-05-04 16:20 47.00607 17.44153 35009 ft 455 kts 126°
2026-05-04 16:22 46.89646 17.60785 35025 ft 455 kts 137°
2026-05-04 16:23 46.76688 17.78810 35033 ft 454 kts 136°
2026-05-04 16:25 46.63019 17.97842 35031 ft 452 kts 136°
2026-05-04 16:26 46.47083 18.19846 35041 ft 451 kts 136°
2026-05-04 16:28 46.35721 18.35421 35052 ft 451 kts 136°
2026-05-04 16:29 46.19687 18.57242 35051 ft 453 kts 136°
2026-05-04 16:31 46.08171 18.72803 35052 ft 454 kts 136°
2026-05-04 16:32 45.94277 18.91457 35062 ft 456 kts 136°
2026-05-04 16:33 45.85873 19.04944 35057 ft 455 kts 128°
2026-05-04 16:34 45.79733 19.15326 35057 ft 455 kts 129°
2026-05-04 16:35 45.67296 19.35904 35068 ft 455 kts 129°
2026-05-04 16:36 45.61084 19.46120 35069 ft 455 kts 129°
2026-05-04 16:37 45.54848 19.56340 35069 ft 455 kts 129°
2026-05-04 16:38 45.46520 19.69932 35069 ft 455 kts 129°
2026-05-04 16:39 45.36087 19.86868 35072 ft 455 kts 129°
2026-05-04 16:40 45.27314 19.99837 35081 ft 457 kts 136°
2026-05-04 16:41 45.15369 20.14753 35073 ft 458 kts 136°
2026-05-04 16:43 45.03491 20.29791 35081 ft 459 kts 136°
2026-05-04 16:43 44.96346 20.38805 35074 ft 460 kts 136°
2026-05-04 16:45 44.82022 20.56772 35098 ft 461 kts 136°
2026-05-04 16:46 44.70013 20.71741 35085 ft 462 kts 136°
2026-05-04 16:47 44.60380 20.83686 35096 ft 461 kts 136°
2026-05-04 16:48 44.50738 20.95587 35083 ft 461 kts 136°
2026-05-04 16:49 44.41113 21.07412 35098 ft 460 kts 136°
2026-05-04 16:50 44.31504 21.19165 35083 ft 458 kts 136°
2026-05-04 16:51 44.24350 21.27880 35090 ft 456 kts 136°
2026-05-04 16:52 44.14798 21.39472 35085 ft 455 kts 136°
2026-05-04 16:53 44.07643 21.48121 35086 ft 454 kts 136°
2026-05-04 16:54 43.98100 21.59613 35105 ft 454 kts 137°
2026-05-04 16:55 43.83724 21.76829 35083 ft 455 kts 137°
2026-05-04 16:56 43.71706 21.91134 35078 ft 456 kts 137°
2026-05-04 16:57 43.64511 21.99662 35079 ft 456 kts 137°
2026-05-04 16:58 43.54881 22.11043 35073 ft 455 kts 137°
2026-05-04 17:00 43.40612 22.28261 35095 ft 454 kts 137°
2026-05-04 17:01 43.28703 22.42531 35087 ft 454 kts 137°
2026-05-04 17:02 43.19182 22.53884 35104 ft 452 kts 137°
2026-05-04 17:03 43.12057 22.62349 35095 ft 451 kts 137°
2026-05-04 17:03 43.04968 22.70744 35092 ft 448 kts 137°
2026-05-04 17:04 42.95575 22.81852 35101 ft 445 kts 137°
2026-05-04 17:05 42.86399 22.93012 35105 ft 442 kts 137°
2026-05-04 17:06 42.79533 23.01328 35104 ft 440 kts 137°
2026-05-04 17:07 42.74178 23.07785 35108 ft 439 kts 137°
2026-05-04 17:07 42.68836 23.14211 35106 ft 439 kts 137°
2026-05-04 17:08 42.61969 23.22453 35106 ft 439 kts 138°
2026-05-04 17:09 42.57408 23.27912 35102 ft 440 kts 138°
2026-05-04 17:09 42.52971 23.33625 35107 ft 440 kts 134°
2026-05-04 17:10 42.42203 23.48404 35119 ft 442 kts 134°
2026-05-04 17:11 42.37855 23.54281 35127 ft 442 kts 134°
2026-05-04 17:12 42.31314 23.63098 35119 ft 443 kts 134°
2026-05-04 17:13 42.19909 23.77148 35118 ft 445 kts 137°
2026-05-04 17:14 42.10687 23.88280 35105 ft 445 kts 137°
2026-05-04 17:15 42.03783 23.96621 35106 ft 445 kts 137°